Regional Weather Roundup
Issued by NWS Bismarck, ND

Home | Current Version | Previous Version | Text Only | Print | Product List | Glossary On
Versions: 1 2 3 4 5 6 7 8 9 10 11 12 13 14 15 16 17 18 19 20 21 22 23 24 25 26 27 28 29 30 31 32 33 34 35 36 37 38 39 40 41 42 43 44 45 46 47 48 49 50
000
ASUS43 KBIS 191602
RWRBIS

NWR BROADCAST TEXT
NATIONAL WEATHER SERVICE BISMARCK ND
1100 AM CDT THU APR 19 2018

NOTE: "FAIR" INDICATES FEW OR NO CLOUDS BELOW 12,000 FEET WITH NO
SIGNIFICANT WEATHER AND/OR OBSTRUCTIONS TO VISIBILITY.


CITY           SKY/WX    TMP DP  RH WIND       PRES   REMARKS
WILLISTON      CLOUDY    38  35  89 VRB5      30.41S FOG
MINOT          CLOUDY    40  35  83 NW6       30.42R HAZE
MINOT AFB      NOT AVBL
BISMARCK       SUNNY     40  34  79 VRB3      30.44R
DICKINSON      PTSUNNY   41  39  93 E7        30.35S
GARRISON         N/A     38  34  85 N6        30.42R
HETTINGER ARPT SUNNY     47  34  60 SE8       30.36F
JAMESTOWN      SUNNY     47  32  56 W3        30.41R
CARRINGTON     FAIR      41  36  81 NW8       30.44R
HAZEN          CLOUDY    43  36  75 E6        30.44S HAZE
LINTON           N/A    N/A N/A N/A CALM      30.44S
MANDAN         PTSUNNY   37  37 100 CALM      30.43R FOG
OAKES            N/A     45  34  65 SW7       30.44R
RUGBY          FAIR      41  37  87 NW7       30.41R
STANLEY          N/A     34  34 100 CALM      30.43R FOG
TIOGA          CLOUDY    34  34 100 CALM      30.42R FOG
WATFORD CITY   CLOUDY    36  36 100 SE8       30.40S FOG
$$

CITY           SKY/WX    TMP DP  RH WIND       PRES   REMARKS
GRAND FORKS    FAIR      48  32  53 SE5       30.41R
GRAND FORKS AF NOT AVBL
DEVILS LAKE    FAIR      42  30  62 W6        30.41S
FARGO          FAIR      48  29  47 W3        30.43R
CANDO          FAIR      46  34  61 VRB5      30.42S
CAVALIER         N/A     48  28  46 CALM      30.40R
GRAFTON        FAIR      48  30  49 E5        30.42S
GWINNER          N/A     46  34  61 W7        30.43S
LANGDON        FAIR      46  39  76 NW3       30.39S
ROLLA          FAIR      41  36  81 CALM      30.39S
WALHALLA       FAIR      50  30  46 CALM      30.40R
$$

CITY           SKY/WX    TMP DP  RH WIND       PRES   REMARKS
ABERDEEN       SUNNY     49  34  56 SW7       30.46R
MOBRIDGE       SUNNY     45  30  55 S6        30.40S
BUFFALO          N/A     50  33  52 SE20      30.24F
RAPID CITY     SUNNY     49  36  61 SE14      30.33F
GLASGOW        CLOUDY    36  33  89 E21       30.30F FOG
SIDNEY         CLOUDY    38  37  97 E6        30.38F
WOLF POINT     CLOUDY    37  35  92 E12       30.35F FOG
GLENDIVE       CLOUDY    36  36 100 NE9       30.33F FOG
MILES CITY     PTSUNNY   49  36  61 E8        30.25F
BAKER          MOSUNNY   48  37  65 SE20      30.32F
$$

CITY           SKY/WX    TMP DP  RH WIND       PRES   REMARKS
BILLINGS       PTSUNNY   45  28  51 CALM      30.14S
GREAT FALLS    PTSUNNY   39  29  67 W6        30.14F
REGINA         FOG       32  30  93 SE10      30.39S VSB 1
$$




USA.gov is the U.S. government's official web portal to all federal, state and local government web resources and services.